RH
67 88 86 75 100 87 67 82 82 60 62 100 100 94 100 94 100 93 77 58 58 65 60 60 76 78 78 81 72 70 54 25 18 17 17 15 15 14 14 13 14 15 14 17 23 22 24 22 20
63 72 87 86 100 100 74 60 86 71 70 100 100 98 100 88 100 91 75 51 69 63 75 70 62 77 86 98 76 76 74 64 28 18 18 18 16 16 16 16 15 15 15 15 21 24 23 24 24
72 63 77 86 99 100 99 64 52 85 65 100 100 100 100 100 100 86 69 62 72 90 76 66 70 69 81 93 81 78 72 72 66 32 17 17 17 17 18 18 19 17 17 16 22 25 27 27 29
77 64 70 88 100 100 100 76 59 57 73 100 100 100 100 100 100 100 88 76 74 87 91 67 49 58 65 70 68 83 79 51 71 62 32 20 17 18 18 19 20 19 19 18 19 24 36 38 37
87 64 70 84 100 100 100 69 56 68 60 98 100 100 100 98 99 100 100 100 96 97 100 100 81 51 63 57 73 94 92 38 36 74 46 36 31 29 32 34 30 26 26 24 20 24 33 39 40
86 83 63 91 100 100 100 97 64 54 71 68 100 100 100 100 89 100 100 100 100 100 100 93 97 75 51 64 84 76 42 34 31 64 75 64 57 50 45 40 37 35 36 36 27 26 33 42 30
94 83 71 81 100 100 100 100 91 49 66 75 100 100 100 100 100 96 100 100 100 100 100 84 72 73 52 66 51 46 37 30 30 52 73 67 66 60 60 55 46 44 46 45 40 31 32 29 34
100 90 96 91 100 100 100 94 78 66 49 84 89 100 100 100 100 100 100 100 100 100 100 84 71 59 55 56 55 51 27 26 28 41 53 56 78 63 58 61 57 48 47 48 46 41 34 32 34
100 100 97 100 100 100 100 100 90 63 55 59 88 100 100 100 100 100 100 100 100 98 90 74 65 65 58 61 65 45 31 23 26 33 37 40 46 71 72 69 69 65 59 54 51 47 42 40 40
85 100 99 99 100 98 100 95 100 79 55 54 64 93 100 94 100 100 100 100 100 91 91 83 69 61 61 65 64 46 46 36 26 30 32 40 47 68 69 69 76 75 70 68 59 56 52 46 48
62 100 100 98 98 99 94 88 84 81 74 62 44 78 95 100 99 100 100 100 100 99 82 86 82 66 64 64 65 54 42 60 41 30 31 33 41 57 76 77 75 77 79 76 64 60 54 59 54
47 72 100 96 100 83 80 75 100 95 86 56 56 58 87 100 100 100 94 100 100 98 90 84 66 59 61 63 68 63 37 44 49 39 31 30 34 44 84 75 78 84 85 74 68 67 52 48 61
48 53 89 100 100 100 74 67 67 100 99 69 68 50 60 89 100 100 93 100 100 100 96 86 68 60 66 64 66 64 41 41 44 34 39 35 38 46 74 73 70 77 86 69 79 70 64 71 76
41 47 49 94 100 100 97 68 89 100 100 90 52 47 50 58 82 98 92 100 93 100 100 92 84 69 61 58 57 59 44 40 60 54 38 38 50 71 67 57 68 82 79 87 88 70 68 70 82
32 38 43 46 99 100 99 97 72 100 87 95 73 52 38 42 61 88 86 91 81 98 98 93 79 68 62 60 60 61 58 47 52 74 54 36 52 68 83 79 86 91 99 99 81 68 60 66 72
26 26 28 31 40 96 100 100 97 71 72 94 65 48 43 44 48 60 76 81 79 84 100 100 92 84 77 74 71 66 56 54 56 62 65 53 41 66 70 100 100 100 99 76 66 60 59 76 79
17 22 22 29 23 38 100 100 100 68 83 84 82 68 53 32 44 71 76 88 75 83 99 100 100 99 100 93 75 81 72 56 62 68 83 75 56 60 74 76 90 79 80 71 51 55 43 46 55
15 12 14 22 33 24 50 100 98 91 68 86 95 99 91 77 47 62 85 100 97 96 95 96 100 98 100 100 100 100 82 78 57 65 67 79 74 54 58 85 81 75 62 52 59 59 53 58 66
14 13 11 11 13 18 20 63 81 93 87 76 88 96 100 100 100 61 60 88 100 84 97 100 84 100 100 100 100 95 84 79 52 64 64 67 85 100 73 63 61 59 59 66 69 61 72 76 68
12 10 10 9 8 8 14 19 72 85 89 78 83 97 99 100 99 88 56 65 84 100 99 96 100 100 100 100 98 82 73 82 57 71 78 75 76 90 82 46 45 59 80 89 77 79 80 79 86
10 7 6 6 6 5 6 8 17 61 100 67 66 73 78 90 100 90 64 58 54 78 99 100 99 100 99 80 81 83 85 81 74 81 93 94 85 82 86 66 65 69 96 100 100 100 83 72 86
7 6 6 6 5 6 5 7 8 13 53 94 58 53 70 79 91 100 96 58 44 58 76 96 100 100 100 99 82 92 92 100 100 98 94 93 89 97 98 100 100 100 100 100 93 70 58 61 76
7 5 5 5 4 5 6 6 7 8 12 42 72 58 51 59 83 100 100 100 61 63 61 76 95 100 100 100 100 100 86 100 100 100 100 100 99 81 87 93 100 100 100 100 81 78 61 63 70
6 6 6 5 5 5 5 6 7 7 9 11 30 58 72 68 65 82 100 100 95 67 75 62 67 94 100 100 100 100 92 92 100 100 100 100 92 82 81 75 71 74 78 81 81 62 68 98 99
7 6 6 6 6 6 5 6 6 8 8 9 12 24 59 86 94 84 82 92 100 93 71 80 77 75 86 100 100 100 100 83 83 78 91 100 100 84 69 71 82 71 58 46 42 53 56 41 51
7 5 5 4 5 6 6 6 6 8 9 10 11 15 42 71 81 86 100 93 88 88 90 83 76 80 82 99 100 100 100 80 71 80 67 62 96 100 91 92 87 100 100 68 48 48 62 58 73
7 6 5 5 5 5 6 6 7 9 9 9 10 13 40 85 83 85 94 100 100 96 100 95 92 86 85 100 100 100 100 100 98 78 77 68 73 81 82 97 100 100 100 100 100 100 100 94 99
9 7 5 5 6 5 6 7 7 8 8 10 10 12 20 74 100 100 100 100 100 100 100 100 100 96 94 98 100 100 100 100 100 100 95 75 83 90 84 76 82 100 98 82 78 100 100 99 81
14 9 6 5 5 6 7 7 8 8 8 9 11 11 14 23 69 100 100 100 100 100 100 100 100 93 100 100 100 100 100 100 100 100 100 100 100 90 74 74 72 86 77 78 100 100 100 100 99
19 15 10 7 6 7 8 8 7 8 9 9 10 10 15 17 35 79 97 100 100 100 100 100 100 100 84 73 95 100 100 100 100 100 100 100 100 100 100 86 66 67 73 78 100 100 100 100 100
Wind_Speed
49 46 46 44 41 37 39 37 32 27 29 25 28 24 24 23 21 21 21 18 18 12 11 7 7 4 3 1 4 9 8 7 7 7 6 4 4 4 5 6 7 7 8 6 6 8 8 9 10
52 50 49 46 41 40 42 41 36 31 31 28 32 26 26 25 25 24 25 20 21 15 11 12 9 8 7 3 2 6 9 11 10 9 7 5 4 4 6 7 8 8 9 8 5 7 8 8 8
56 55 53 48 42 43 46 46 42 37 36 32 33 29 27 27 26 25 25 16 16 17 15 14 14 13 12 9 9 11 8 11 13 12 9 8 5 5 5 8 9 9 10 9 5 5 6 5 6
60 58 57 48 47 50 52 51 44 41 40 35 33 33 30 31 28 25 27 21 19 17 21 19 17 16 18 18 15 15 15 14 14 13 11 11 10 9 8 8 9 9 9 8 6 4 4 4 5
65 63 58 51 50 53 58 56 50 43 43 39 35 34 34 32 30 31 31 28 26 23 24 25 22 19 16 20 21 21 23 25 16 15 11 11 12 11 10 10 11 10 10 9 8 7 5 5 6
70 68 60 56 52 59 61 62 55 49 44 44 41 38 37 36 35 33 34 34 34 33 31 30 29 23 22 22 23 28 28 28 18 14 13 13 15 14 13 12 11 11 10 10 10 9 9 7 10
74 70 63 62 57 58 66 68 62 57 50 47 46 45 42 37 38 36 39 40 38 38 36 34 30 26 25 25 28 29 31 25 17 15 16 17 17 16 15 14 12 12 11 12 11 11 11 11 12
80 76 66 63 60 62 63 70 72 64 55 52 51 49 46 41 42 41 40 46 44 45 42 37 31 26 26 28 32 31 27 24 19 18 21 19 17 18 18 18 16 13 13 13 13 12 13 13 13
84 79 71 65 70 66 68 71 74 71 60 55 53 52 51 47 45 46 43 45 48 47 44 38 32 30 30 32 31 30 28 26 22 20 21 20 23 22 19 19 19 18 18 17 15 14 15 14 16
84 81 78 75 74 74 72 75 76 74 66 58 57 57 55 54 50 49 47 46 47 47 44 39 36 34 35 35 33 30 28 28 24 23 22 21 21 23 24 21 21 21 19 17 17 17 16 16 18
85 80 82 82 80 80 80 79 80 78 72 67 62 59 58 58 56 54 51 48 50 48 45 42 42 40 39 40 37 32 28 27 25 25 24 23 23 23 23 22 23 23 22 21 20 20 18 17 18
88 84 85 85 84 85 84 83 82 80 79 77 68 64 60 59 59 58 54 53 53 51 49 46 44 47 45 43 41 35 32 31 29 26 26 25 25 25 26 24 23 25 24 22 22 22 20 18 19
90 88 89 85 88 87 89 88 88 77 83 83 77 71 67 64 63 62 60 57 55 53 51 51 49 51 49 47 44 39 36 34 33 30 28 26 25 26 28 27 25 24 24 23 22 24 25 23 22
94 94 90 91 90 91 89 93 94 78 87 88 82 76 73 70 67 64 60 60 55 54 53 53 54 55 53 51 48 42 39 37 35 34 30 28 26 28 29 26 24 25 25 25 23 27 28 26 25
93 96 98 96 96 95 98 91 88 86 95 92 89 85 76 76 71 67 65 63 58 56 59 55 52 52 54 53 51 47 43 42 39 35 34 30 28 29 26 25 26 26 26 25 27 30 29 25 25
87 92 98 105 103 101 101 89 91 100 100 96 98 91 81 78 74 74 68 67 63 63 59 60 57 55 56 58 56 51 43 40 40 38 37 35 31 29 29 28 29 28 30 31 31 30 24 25 26
80 87 93 96 108 107 103 96 100 99 104 102 101 99 90 81 78 74 73 69 66 66 64 61 59 58 58 53 49 45 41 40 37 36 40 39 37 33 32 33 36 36 34 34 28 23 21 21 21
74 81 88 96 102 108 107 101 105 103 102 105 103 100 97 86 84 80 75 71 66 65 62 59 60 60 59 56 53 49 45 41 41 38 39 40 39 36 35 39 38 36 33 27 25 23 22 22 23
67 73 80 89 98 103 103 105 109 110 102 108 108 106 97 94 91 89 82 77 71 68 62 62 67 66 66 61 57 57 51 47 43 39 35 37 41 42 42 43 38 33 28 25 26 26 26 26 28
71 73 78 80 88 92 95 98 111 111 107 108 114 113 108 100 96 94 88 83 80 74 70 68 66 69 69 63 62 60 54 47 46 40 38 37 40 47 47 37 32 30 28 27 29 31 32 30 31
77 75 70 68 80 79 85 85 97 113 116 117 114 114 115 107 102 100 96 90 87 81 78 73 72 72 72 68 62 59 52 46 45 45 48 49 43 40 39 37 34 31 30 33 32 34 32 32 33
77 75 73 70 65 75 76 83 93 98 115 119 115 115 115 112 107 105 102 99 92 88 86 83 77 75 74 70 63 59 57 50 49 51 52 48 45 45 42 42 39 39 39 40 39 37 36 36 35
65 66 58 61 58 64 75 78 88 92 100 115 119 116 116 117 114 109 108 102 101 95 92 87 86 83 77 73 68 67 61 55 57 56 54 53 53 52 49 47 47 48 44 45 44 43 41 39 43
53 58 57 54 59 63 71 76 85 92 97 104 114 119 119 118 116 113 111 108 105 103 97 95 92 88 86 82 76 72 72 67 64 65 62 59 58 56 52 52 53 54 52 47 47 47 46 46 48
36 43 48 50 54 65 72 75 85 91 95 101 108 114 121 123 121 116 112 112 111 104 102 101 96 92 93 91 88 83 81 81 77 74 70 68 65 63 60 55 50 52 54 54 52 50 51 56 55
35 32 38 44 52 60 68 77 83 85 89 97 106 112 118 124 126 122 115 114 114 106 106 101 101 100 94 94 94 92 88 87 84 82 78 73 70 69 67 62 56 53 55 55 55 57 60 60 57
30 26 29 37 46 56 64 74 82 88 91 90 101 107 117 122 125 124 121 116 115 110 105 108 105 100 98 97 97 96 92 90 90 86 83 80 76 75 75 72 67 62 62 60 59 62 61 58 55
28 22 21 29 40 51 62 72 81 90 88 90 94 101 110 121 123 123 121 120 118 114 111 106 106 102 102 101 98 99 97 94 93 91 87 85 82 83 83 81 74 69 68 65 67 65 62 65 58
32 22 17 22 34 46 56 68 77 86 88 88 94 99 107 114 123 125 124 122 121 119 117 112 111 112 108 105 105 103 102 99 97 95 92 92 88 87 82 80 80 77 76 72 67 63 60 56 58
35 28 18 15 24 34 45 57 72 79 87 90 96 94 104 115 122 128 130 127 125 122 120 118 116 112 112 110 113 108 107 104 102 96 93 90 91 92 88 84 85 81 80 82 78 73 59 59 64
Wind_Direction
241 236 231 232 231 232 232 224 218 205 207 216 228 229 235 243 240 232 221 252 216 222 227 224 252 201 219 119 63 40 3 324 317 312 314 312 303 323 349 -0 17 29 30 30 34 32 35 42 43
239 237 230 227 226 232 236 230 216 207 206 211 228 229 234 240 240 232 233 233 228 237 229 235 232 262 233 248 20 351 345 344 313 311 303 312 327 344 348 347 357 1 8 12 17 30 38 41 40
238 237 230 226 224 229 234 234 221 205 204 212 225 225 231 239 245 250 250 254 245 243 240 246 232 256 244 228 283 307 345 331 324 298 300 295 299 303 324 334 344 347 351 357 4 21 32 31 39
235 234 231 223 219 228 233 235 228 214 203 211 222 229 229 228 235 238 248 258 252 257 247 254 252 255 256 246 287 288 299 319 305 306 299 302 303 304 312 315 323 328 339 342 342 357 9 21 11
235 235 228 220 222 228 233 237 231 222 210 203 218 227 231 229 231 230 235 242 248 251 252 261 266 263 258 254 276 280 291 301 299 289 298 301 301 300 301 306 309 314 324 329 322 319 327 345 343
235 232 229 219 223 228 233 237 234 224 218 207 212 221 227 233 231 230 229 235 237 244 249 253 260 265 272 265 269 280 289 294 293 275 277 291 296 296 297 304 306 308 314 322 318 309 311 314 327
233 231 229 219 223 233 235 239 235 229 215 212 206 216 224 229 236 234 231 232 236 240 246 252 256 260 271 272 278 283 286 289 285 264 266 281 284 291 295 305 298 307 312 318 317 311 304 311 316
233 232 227 225 216 228 235 239 239 232 221 211 212 216 219 225 232 237 235 231 235 242 247 250 252 258 266 274 278 286 284 280 274 260 263 270 277 277 286 292 298 301 311 316 315 308 308 307 307
234 231 229 221 219 222 231 236 237 236 226 219 211 217 219 221 229 236 238 236 236 241 245 248 253 256 260 269 276 283 278 272 269 263 262 265 267 265 273 283 287 291 299 310 315 313 306 309 307
231 231 226 229 218 220 227 233 236 239 233 220 220 215 223 224 224 233 237 240 240 241 243 247 249 250 257 266 271 278 275 272 266 263 262 264 258 256 263 270 276 283 291 301 309 314 309 312 317
230 227 228 225 227 218 223 227 232 236 237 228 218 220 220 226 226 229 233 236 240 243 242 244 244 244 251 260 269 273 268 269 267 263 261 262 257 252 257 264 268 272 276 290 300 311 306 305 310
230 229 226 226 225 224 220 225 231 235 238 233 223 217 220 222 226 229 232 235 240 241 242 241 241 245 250 256 264 269 266 263 262 263 260 261 260 255 252 259 265 268 272 283 293 305 305 300 304
230 230 226 225 229 227 223 225 228 230 238 237 231 220 219 221 223 227 232 234 239 244 243 243 239 240 247 252 259 266 268 262 262 260 258 259 259 255 251 256 262 265 271 281 288 301 306 300 301
233 229 229 225 226 229 225 222 227 225 236 238 236 227 223 219 224 225 227 232 234 241 244 244 244 244 247 253 258 264 268 264 260 262 257 255 254 253 257 260 261 265 270 276 282 296 301 294 294
235 233 232 230 225 227 227 225 224 228 231 235 236 235 223 222 220 225 226 229 230 236 242 245 247 249 252 254 257 264 270 265 259 260 262 255 246 251 255 260 260 258 261 269 281 287 292 285 290
239 236 236 235 230 225 227 222 224 226 231 232 237 234 229 226 221 224 227 230 230 235 240 243 245 249 253 255 258 261 265 265 264 262 261 259 250 246 244 249 252 254 264 272 279 280 279 280 285
243 240 237 237 235 229 224 224 227 224 228 232 235 238 234 226 225 223 226 229 231 235 239 243 244 247 250 254 256 259 261 260 263 259 253 254 255 247 245 247 250 255 263 273 270 269 272 273 277
250 247 243 239 238 234 227 223 226 226 225 231 232 235 239 233 231 227 223 225 226 234 238 242 242 245 246 249 255 259 261 259 250 248 251 249 253 254 250 250 251 256 266 263 262 262 264 271 279
254 252 247 244 243 241 232 224 227 229 225 227 232 232 234 237 235 231 225 222 223 225 232 238 245 244 246 247 247 252 254 255 250 249 252 251 250 253 253 253 253 257 258 262 265 259 262 270 278
268 259 250 248 245 244 243 230 226 229 229 226 228 233 232 232 235 236 231 225 222 224 230 233 241 246 248 249 252 253 253 251 248 245 250 245 243 242 248 254 249 253 256 260 263 265 268 271 274
264 264 259 249 248 246 242 240 232 227 229 229 228 230 234 231 234 236 236 230 228 222 227 231 237 244 248 246 247 249 250 250 250 247 245 243 243 247 251 256 254 252 251 258 260 262 267 272 275
267 265 262 260 242 240 238 234 235 229 227 230 232 233 235 235 233 235 238 237 232 232 226 231 232 238 246 246 246 246 244 246 247 247 248 251 250 249 243 242 247 251 254 251 249 256 265 272 277
274 272 262 252 245 232 233 231 232 229 228 229 230 232 234 237 236 236 236 237 237 234 234 228 234 235 238 243 245 247 243 244 244 247 248 249 248 248 246 245 243 250 255 258 258 266 274 276 279
270 263 259 248 241 233 227 227 228 227 224 225 230 230 233 235 236 235 237 238 238 237 236 236 233 237 239 241 241 244 246 242 241 243 243 245 245 249 252 252 252 251 253 259 265 271 272 278 283
282 269 257 247 235 231 225 221 226 227 224 223 225 227 229 232 236 236 236 238 238 238 238 238 239 238 238 238 240 239 240 243 242 242 241 242 245 247 248 250 260 263 263 260 261 266 270 269 273
300 274 258 246 234 227 225 223 224 225 226 223 223 224 226 230 233 237 237 238 238 240 237 238 238 240 240 238 240 242 240 242 244 246 246 245 244 247 248 249 251 255 260 262 264 266 268 270 278
311 290 260 243 230 224 221 220 222 220 224 223 223 223 223 227 231 234 237 237 239 240 239 236 237 239 240 239 241 242 242 243 245 246 248 249 247 249 249 248 249 252 255 260 264 264 268 273 278
329 308 268 242 228 224 220 219 219 221 221 220 223 224 224 225 230 233 236 238 237 238 239 239 235 235 236 239 240 242 245 245 246 247 248 252 251 250 251 251 251 255 256 258 259 263 267 269 266
346 330 293 251 230 221 223 222 219 222 223 221 222 222 224 226 228 231 234 237 239 238 239 240 240 234 233 237 240 241 244 247 248 248 252 253 253 252 251 249 248 250 254 255 256 256 262 270 257
0 351 327 277 242 227 223 226 225 221 222 221 223 223 222 224 225 230 233 235 237 239 239 240 242 242 240 237 237 240 241 246 248 251 250 252 253 252 251 251 251 249 249 250 250 253 254 258 262